RH
75 76 75 75 75 78 80 81 82 83 82 81 81 82 84 83 83 84 83 81 79 77 78 79 76 78 64 39 28 35 55 54 42 34 25 28 30 33 35 34 37 37 36 35 34 28 28
75 76 76 74 76 79 80 81 82 83 82 81 81 82 84 85 84 85 84 82 80 78 79 78 75 76 51 30 28 31 34 32 31 26 27 28 28 28 31 34 35 32 35 32 32 32 34
76 76 75 76 75 79 80 81 82 82 81 80 80 82 84 84 84 85 84 81 80 79 76 74 73 56 51 26 25 26 25 25 27 25 27 29 25 27 25 33 32 32 36 41 35 33 40
76 76 76 76 77 79 80 81 82 81 80 79 79 82 83 84 85 86 84 80 78 81 75 70 70 57 32 27 27 23 23 25 26 28 29 32 31 31 30 34 36 39 42 39 40 39 45
76 76 76 75 77 78 79 80 80 80 80 80 80 81 82 84 85 84 83 76 74 76 68 73 63 45 33 35 29 30 29 24 30 32 33 29 37 39 37 37 38 40 33 44 42 41 45
77 76 76 75 76 79 79 79 80 79 79 80 81 82 82 86 86 84 82 70 74 65 59 48 30 49 35 29 32 32 34 28 34 39 38 39 45 44 44 38 43 33 43 42 41 45 50
77 77 74 76 76 79 79 79 78 78 79 80 81 83 83 87 84 82 72 59 40 42 49 33 35 37 34 34 36 37 36 35 38 34 36 51 41 42 38 38 29 32 40 39 38 48 50
77 77 75 77 78 78 78 78 78 78 78 79 81 83 83 87 80 76 66 52 40 39 44 39 38 38 36 36 38 39 34 34 40 38 45 48 41 35 36 41 40 42 41 41 42 48 46
79 77 75 76 78 78 78 78 78 77 77 80 82 83 83 88 76 65 57 53 54 57 43 40 36 36 36 37 37 39 34 39 39 48 48 44 38 41 38 47 44 44 45 43 42 49 52
79 78 77 78 78 78 77 78 77 77 78 80 82 82 83 88 61 60 54 56 59 53 37 32 43 42 38 40 46 42 41 42 48 39 52 49 42 39 43 43 41 46 43 41 46 55 63
77 76 77 77 77 76 76 76 76 76 78 80 82 81 84 85 62 51 48 62 67 32 59 40 47 42 44 39 44 46 45 43 46 46 48 47 43 44 45 42 43 46 55 52 51 66 63
76 76 76 75 75 75 75 76 76 76 77 80 80 81 88 82 77 62 62 74 46 41 52 54 48 50 44 46 50 50 46 39 42 45 46 52 52 53 54 63 57 63 54 61 67 64 77
78 77 75 75 75 76 76 77 76 76 77 78 80 81 92 64 58 69 69 49 44 52 37 47 51 50 46 50 51 48 48 56 60 53 54 57 56 60 58 61 57 56 57 78 70 84 68
74 73 74 75 75 75 76 76 75 76 77 78 80 87 84 62 72 75 58 41 45 32 37 48 46 49 45 46 52 54 50 53 61 53 66 60 60 57 62 65 70 58 64 76 56 55 46
73 73 75 76 76 76 77 76 76 78 78 79 83 94 86 75 78 74 49 64 40 33 37 42 40 43 46 47 48 49 56 61 54 57 50 60 52 62 68 74 69 66 70 53 81 87 76
74 74 75 75 76 76 76 79 76 78 79 79 97 82 81 73 81 64 66 65 39 49 44 41 40 38 45 46 45 49 55 58 61 68 72 52 65 64 66 71 72 72 66 69 85 65 68
74 75 75 75 77 77 76 76 81 78 78 82 95 79 74 70 69 62 80 64 47 44 47 40 40 37 38 47 47 52 48 63 66 78 70 65 64 69 63 72 84 83 87 84 76 71 67
75 74 75 76 76 77 76 77 76 83 80 89 86 60 71 71 84 72 70 53 51 49 47 45 46 44 40 46 46 46 44 57 65 72 68 75 75 86 68 89 96 92 84 81 70 67 87
76 76 75 76 76 76 77 77 75 76 80 83 74 78 79 63 95 69 60 58 59 51 49 48 46 47 47 45 50 54 65 68 64 70 74 79 77 75 61 81 84 92 94 89 88 87 94
74 74 74 75 75 76 76 75 76 74 82 92 74 78 74 74 76 67 66 56 57 70 57 55 48 51 49 51 56 68 76 78 74 82 65 59 70 69 60 62 81 91 98 95 83 88 82
73 74 73 74 74 75 76 75 75 72 81 93 78 84 81 89 78 66 63 64 68 70 70 67 71 59 50 61 61 66 84 85 84 75 74 72 78 78 74 78 84 85 98 94 90 82 71
72 72 73 74 74 75 76 75 75 70 74 83 87 90 87 83 78 72 76 67 67 76 75 73 70 71 68 62 54 63 79 84 78 82 77 68 87 77 75 71 86 82 93 98 96 96 93
75 73 74 73 74 74 75 74 73 70 69 79 90 76 84 79 80 82 73 71 79 76 72 56 68 55 65 63 57 58 63 73 77 82 84 82 79 76 50 62 62 46 55 94 95 99 87
74 75 76 75 74 74 75 75 72 72 71 83 92 77 90 73 79 74 73 69 78 63 73 57 44 44 61 55 56 48 65 68 72 76 75 80 76 80 66 65 34 55 70 83 82 90 96
74 75 74 74 75 74 74 75 73 72 69 85 91 78 92 71 55 54 55 60 55 54 66 64 71 72 56 45 43 35 33 45 87 87 79 67 67 90 68 64 38 51 81 84 71 58 89
74 75 75 76 75 74 74 74 74 71 69 83 92 95 85 86 46 51 49 50 61 69 62 73 66 68 60 61 63 54 39 35 84 97 77 64 67 72 92 57 43 38 83 77 76 64 82
70 71 72 72 74 73 74 74 74 73 70 78 87 93 81 91 82 77 69 62 55 74 83 80 77 67 61 77 70 53 30 46 77 83 99 91 91 80 90 87 63 56 95 82 53 54 96
70 72 72 70 69 69 73 73 73 74 70 73 86 91 78 95 94 94 91 66 66 73 76 82 70 73 84 70 68 71 70 75 81 79 92 88 91 93 96 98 61 90 79 66 79 96 92
67 69 67 68 69 70 69 71 72 73 73 68 72 84 84 90 97 94 95 96 97 95 86 84 82 75 74 80 90 94 91 99 90 64 89 76 76 82 70 68 92 98 98 98 94 94 96
Wind_Speed
9 10 12 12 13 13 13 13 13 12 11 12 12 12 12 12 11 9 6 6 5 3 2 3 1 2 1 1 5 3 6 7 5 4 5 5 5 4 4 4 4 3 3 3 3 3 3
7 10 11 13 13 13 13 13 14 13 13 11 11 12 12 12 10 10 8 6 4 4 2 2 3 1 2 3 2 4 7 5 4 4 4 5 6 5 4 3 3 4 3 3 2 2 2
8 9 10 12 13 13 12 12 12 13 13 13 12 10 11 12 11 9 8 7 5 3 2 3 3 3 2 6 3 5 6 3 4 3 5 2 5 3 5 4 2 4 2 0 2 3 2
9 10 10 11 12 13 13 12 12 13 13 13 12 11 11 10 10 10 9 7 5 4 3 3 5 2 5 1 2 3 4 3 2 3 4 3 3 5 3 3 5 3 4 1 1 4 0
9 9 10 11 13 13 13 13 13 13 13 13 13 13 12 11 10 9 9 7 2 3 3 5 2 2 4 3 3 2 2 6 4 3 3 3 5 4 3 5 3 5 3 4 2 3 2
9 10 10 11 12 13 13 13 13 13 13 13 12 12 12 11 10 9 8 2 5 6 3 1 0 0 1 4 3 3 1 5 4 5 4 5 5 4 3 3 6 6 4 3 3 3 2
8 10 10 11 12 12 13 13 13 13 13 13 13 13 12 11 9 6 2 3 4 3 1 7 4 1 3 3 2 2 1 3 4 4 5 1 4 8 11 5 3 5 4 3 2 0 3
7 9 11 12 12 13 13 13 14 14 13 12 12 12 12 11 9 3 3 2 3 2 4 4 1 1 0 4 4 2 3 5 4 4 5 4 8 5 4 5 5 4 3 4 0 2 2
6 8 10 11 12 12 13 14 13 14 14 13 12 11 11 10 5 2 3 4 1 1 1 3 5 4 4 5 4 8 6 4 4 6 7 7 2 5 6 4 6 4 5 4 2 2 3
8 9 10 11 13 13 13 14 14 14 14 14 12 11 9 9 2 2 3 2 1 1 4 5 4 3 3 3 2 1 3 3 2 9 8 3 1 5 3 4 6 5 2 4 5 4 4
8 9 10 11 13 14 14 14 14 15 14 14 13 12 8 2 3 2 1 1 2 3 2 2 2 1 1 4 6 2 0 2 6 6 5 4 4 4 3 3 2 3 3 5 3 5 3
9 10 11 12 13 13 14 14 15 15 15 13 12 11 7 3 1 3 1 2 3 6 8 2 3 5 5 1 2 2 2 4 4 4 4 3 1 3 3 3 2 9 7 7 4 3 2
10 12 13 14 14 15 15 17 17 17 17 14 12 9 3 2 3 3 2 3 3 5 1 5 5 5 3 4 3 4 5 5 6 5 4 1 1 1 2 6 4 3 6 2 4 3 6
11 12 13 13 13 14 14 14 14 15 15 13 11 8 3 2 2 4 3 3 4 5 6 3 4 3 7 6 3 3 5 5 3 4 4 7 4 4 2 1 7 4 5 7 8 4 2
12 13 14 15 15 15 16 16 16 15 13 11 9 1 0 2 2 4 6 1 8 7 4 8 3 4 3 3 5 3 6 6 8 10 8 6 2 0 3 1 2 5 4 4 9 2 3
13 14 15 16 17 18 19 18 19 16 11 6 0 2 1 1 3 1 5 8 5 1 2 2 8 5 8 6 5 6 8 3 5 3 1 5 5 1 1 1 4 3 3 4 3 4 4
14 14 15 17 17 18 19 20 21 17 8 1 0 2 0 2 1 3 4 7 4 1 1 4 5 4 5 7 8 6 5 1 3 3 3 4 4 1 1 5 7 2 1 4 4 3 6
14 15 15 17 18 19 19 18 18 14 2 4 0 2 1 2 4 1 3 4 2 3 0 1 1 2 7 7 5 5 8 1 4 6 7 1 6 4 2 1 1 0 3 4 5 5 2
17 18 17 17 19 20 21 19 17 12 1 2 1 2 2 2 4 4 2 2 2 2 3 3 4 2 0 6 4 3 4 1 4 3 7 7 0 4 3 2 1 3 3 4 4 3 6
17 18 18 18 20 21 23 22 22 17 2 3 2 1 2 2 1 4 2 5 4 2 1 1 1 1 2 3 3 5 3 1 2 2 4 4 3 5 7 4 5 4 5 4 4 4 5
18 18 19 20 21 20 21 23 22 17 3 3 0 2 2 3 2 2 3 3 4 4 1 3 1 5 5 4 3 4 3 3 3 5 3 2 5 3 2 3 2 3 7 10 7 5 7
18 19 20 21 22 24 25 24 23 18 4 1 4 4 2 0 1 5 4 5 7 2 5 4 4 4 4 5 5 8 7 4 5 2 3 2 4 3 2 3 5 1 4 8 7 3 1
19 20 21 23 23 24 25 25 25 22 6 2 1 1 4 1 1 2 4 3 2 5 1 2 2 5 3 2 4 3 5 6 5 6 4 4 7 4 4 3 3 6 12 12 6 4 9
20 21 22 23 24 25 25 25 26 23 12 1 2 1 4 3 2 4 2 1 3 2 3 2 4 2 3 5 6 5 10 10 10 7 3 6 6 3 3 2 3 7 1 3 4 5 5
20 21 22 23 23 23 24 25 26 25 16 4 2 2 3 2 2 2 3 3 4 3 3 3 4 1 5 2 4 4 4 3 4 6 5 3 5 4 6 4 5 0 6 8 9 7 11
20 20 21 22 22 24 26 26 25 25 17 3 2 1 2 4 3 2 3 3 4 3 2 2 2 2 2 3 3 5 5 4 3 2 4 5 6 5 3 5 8 5 2 3 3 6 8
22 21 21 22 22 22 23 23 23 22 20 2 2 2 2 3 2 3 2 3 4 3 3 2 4 2 3 2 2 4 4 4 5 8 5 3 3 5 3 3 10 4 3 3 7 8 5
22 22 22 23 23 25 24 24 24 23 23 3 0 3 1 3 1 3 3 1 2 1 4 3 5 2 3 2 4 4 3 5 3 5 7 8 9 5 4 2 10 3 4 7 3 3 5
22 22 22 23 23 24 24 22 22 23 23 8 2 2 3 4 3 2 3 2 3 2 3 1 3 3 4 4 1 3 2 2 3 4 2 2 7 8 10 7 1 3 3 1 2 5 4
Wind_Direction
343 343 340 343 344 344 348 346 348 349 350 350 349 348 344 340 331 322 318 319 312 280 243 186 229 313 215 124 253 164 129 120 115 126 144 145 145 140 172 175 127 155 176 143 108 119 113
342 340 342 339 342 343 346 346 345 346 345 347 349 349 344 339 331 320 315 316 310 301 249 216 139 142 226 222 146 125 120 115 151 134 153 137 179 177 114 168 169 151 134 142 136 123 113
338 337 344 339 337 341 344 344 343 341 343 342 345 348 348 339 331 319 309 308 303 281 258 209 156 125 85 242 120 130 140 161 177 164 145 170 157 113 131 128 149 117 148 4 199 161 120
327 334 340 340 337 339 339 342 339 339 340 339 340 342 345 343 333 322 310 298 270 244 203 198 152 118 227 90 122 150 150 110 121 72 98 142 136 104 91 119 33 80 56 113 194 146 192
324 332 338 340 335 337 338 339 336 338 338 338 338 340 338 339 334 325 310 301 193 165 158 150 105 158 247 132 160 186 185 149 101 65 62 89 66 97 69 103 37 10 203 205 287 184 128
322 332 337 335 335 335 337 336 335 335 336 336 335 335 333 332 334 326 308 241 130 107 85 177 39 3 156 198 152 138 336 138 125 116 71 59 56 91 60 118 206 195 201 230 235 191 101
332 334 336 335 335 335 334 333 332 331 334 335 333 333 331 330 331 322 15 66 42 347 289 188 202 216 139 121 128 64 177 115 95 78 147 74 122 203 202 181 126 132 154 179 182 98 159
335 335 335 337 338 335 333 333 330 330 331 332 330 330 330 329 328 305 109 207 204 169 300 219 241 297 155 179 109 175 144 139 148 165 126 73 228 203 116 158 145 147 147 230 130 79 141
338 338 339 337 337 334 334 330 329 330 330 330 328 329 330 326 334 69 196 226 124 155 141 237 191 172 200 156 171 179 148 148 149 144 186 160 204 129 139 140 147 180 176 190 192 88 62
339 343 344 343 337 336 335 333 331 331 329 325 325 327 330 326 39 215 239 128 125 201 59 242 206 220 122 176 133 110 171 145 147 184 160 218 129 141 144 174 140 186 205 122 128 99 219
354 352 349 343 342 337 338 332 332 329 326 322 322 322 324 342 282 215 263 156 138 60 36 181 165 147 154 170 138 12 20 105 168 159 128 227 156 154 159 164 181 167 85 100 92 100 63
358 353 350 349 344 341 340 333 334 328 324 317 318 316 314 87 120 251 160 120 58 57 248 173 131 165 127 108 88 112 116 52 132 109 45 89 32 46 111 73 45 151 79 55 59 86 43
356 353 348 346 342 336 334 335 333 331 314 311 309 305 266 171 233 152 123 74 67 166 222 193 182 164 155 152 144 157 162 163 158 129 188 77 62 56 86 85 27 86 92 16 358 5 217
4 358 352 346 345 334 336 326 318 309 307 307 305 297 227 205 142 225 71 80 200 221 197 136 119 101 176 155 189 149 137 180 235 111 125 158 255 169 347 135 172 172 149 161 196 195 200
11 5 359 352 348 345 338 335 329 319 314 310 310 249 165 291 178 261 85 186 211 215 156 144 95 155 211 192 152 155 190 199 202 181 172 137 174 29 47 36 71 187 189 136 104 54 49
16 14 3 358 354 348 346 342 335 324 312 303 269 217 73 211 215 64 104 241 231 278 130 157 184 159 180 196 162 179 183 199 182 187 160 187 102 357 143 133 36 135 157 93 1 140 232
16 12 8 1 357 353 351 348 341 332 318 218 113 74 108 331 163 63 178 226 257 257 263 199 195 161 194 179 180 192 195 163 151 130 84 125 97 270 129 198 177 115 5 46 106 111 164
22 15 10 4 3 357 355 351 342 335 323 106 215 149 255 280 41 325 198 213 24 224 191 255 166 178 183 161 161 210 203 237 166 151 153 146 127 152 163 300 195 50 194 159 131 230 76
22 17 10 8 7 0 355 352 353 357 56 14 346 77 30 96 173 215 266 260 269 214 205 183 216 231 175 174 157 151 128 350 156 136 161 194 275 90 1 12 26 212 177 116 109 89 198
22 15 11 13 12 3 354 0 2 357 87 74 8 201 17 57 353 158 120 235 213 221 127 151 180 120 134 148 30 157 131 115 128 105 103 129 116 159 189 175 121 171 180 131 125 125 169
22 20 16 15 10 8 8 1 359 359 141 98 211 352 295 219 253 207 183 162 168 204 224 186 228 221 179 150 119 158 133 132 40 140 73 133 160 143 84 62 77 172 164 182 187 190 164
20 20 18 18 15 11 9 9 4 7 34 184 145 158 331 318 229 174 184 221 201 189 152 220 211 166 181 170 196 188 141 187 184 110 98 0 139 96 335 108 67 263 206 194 211 226 39
21 18 20 19 17 14 12 11 10 10 355 135 271 17 130 191 110 87 231 180 226 141 145 17 212 133 143 101 96 75 67 64 112 139 130 114 135 108 253 38 32 336 221 181 186 195 142
21 19 19 18 16 15 13 11 13 16 29 41 3 88 94 262 182 208 213 111 154 166 174 36 26 128 147 129 111 57 57 62 55 36 54 130 103 90 166 26 324 243 160 142 172 212 181
19 19 16 15 17 16 14 13 13 12 22 71 7 68 129 235 187 198 158 126 110 59 75 82 20 303 142 92 78 74 4 44 42 31 17 19 117 102 138 203 304 160 199 166 168 260 181
21 18 17 15 13 14 13 12 11 11 15 70 60 294 125 119 245 38 148 179 164 130 63 79 45 53 83 89 96 156 206 193 207 60 20 61 62 110 114 158 218 249 184 184 137 301 173
17 16 16 15 13 13 15 13 12 10 10 75 49 13 108 111 358 8 141 193 121 92 114 135 168 133 20 102 120 174 227 157 172 173 177 100 50 169 169 229 288 250 152 163 101 243 132
19 18 15 14 12 10 9 9 7 7 8 40 128 11 82 113 56 16 9 100 57 84 151 185 76 318 55 143 152 214 142 221 93 155 177 163 150 183 93 75 276 123 105 163 195 46 103
17 15 15 13 9 5 2 6 5 6 4 5 53 346 334 77 98 45 67 52 34 3 131 127 187 163 178 99 118 101 165 70 141 233 39 260 180 179 180 210 107 51 75 11 336 124 122